Weather in Sosnovka

Russia / Republic of Bashkortostan     53°51′24″N   58°17′26″E
temp.,
°C
wind,
m/s
gust,
m/s
humid.,
%
clouds,
%
prec.,
mm/h
press.,
hPa
HPBL,
m
1 march, mon
mon123:00−14ese129691 0.3 100821
02:00−17ese119779 0.1 101020
05:00−15s119781 0.1 101220
08:00−15ssw119782 0.1 101420
11:00−10w019185 0.1 1015263
14:00−6w1289100 0.1 1016453
17:00−6wnw1292100 0.4 1016412
20:00−11nw129798 0.2 101725
2 march, tue
tue223:00−17wnw119990 0.3 101820
02:00−18w1110061 0.0 101720
05:00−20w1110079 0.1 101720
08:00−22wsw1210098 0.0 101620
11:00−15wsw239298 0.0 1015244
14:00−11wsw378899 0.0 1011478
17:00−10sw3119299 0.1 1009528
20:00−15sw31094100 0.1 1008416
3 march, wed
wed323:00−17sw21096100 0.1 1007274
02:00−14sw3129699 0.0 1004340
05:00−10sw31394100 0.1 1002552
08:00−9sw3139491 0.1 1001475
11:00−6sw499191 0.3 1001637
14:00−3wsw5887100 0.3 10011109
17:00−4w4888100 0.4 1001968
20:00−9wsw239697 0.1 100162
4 march, thu
thu423:00−12wsw229869 0.1 100339
02:00−13wsw229882 0.1 100238
05:00−14wsw239890 0.1 100353
08:00−15wsw249993 0.1 100483
11:00−10wnw5109097 0.1 1005740
14:00−9w61085100 0.1 10061052
17:00−9w51187100 0.2 1007928
20:00−12wsw4139494 0.1 1008506
5 march, fri
fri523:00−13sw3159594 0.1 1008503
02:00−11sw5169390 0.1 1005790
05:00−7wsw8189195 0.6 1003954
08:00−5sw92189100 0.5 10011283
11:00−4wsw102092100 1.9 10001363
14:00−3wsw101991100 1.1 10021518
17:00−4w92071100 2.1 10062028
20:00−9w6159114 0.0 1009665